This demonstration page uses our WeatherBlox Daily Observations layout. Learn more.

Left ArrowRight Arrow

Hourly Observations for July 20, 2022

Temp ( °F °C ) Dew Point ( °F °C ) Humidity (%) Winds ( mph kmh ) Pressure ( in mb ) Visibility ( mi km ) Precip ( " mm )
12:53 am 00:53 Clear 92 33.3 66 18.9 43 43 S 14 22 29.78 1008 10 16 0.00 0.00
1:53 am 01:53 Mostly Clear 90 32.2 70 21.1 52 52 S 10 17 29.78 1009 10 16 0.00 0.00
2:53 am 02:53 Mostly Clear 88 31.1 70 21.1 55 55 S 10 17 29.79 1009 10 16 0.00 0.00
3:53 am 03:53 Mostly Clear 86 30 70 21.1 59 59 S 13 20 29.80 1009 10 16 0.00 0.00
4:53 am 04:53 Mostly Clear 84 28.9 70 21.1 63 63 S 8 13 29.82 1010 10 16 0.00 0.00
5:53 am 05:53 Mostly Clear 83 28.3 72 22.2 70 70 S 12 19 29.83 1010 10 16 0.00 0.00
6:53 am 06:53 Mostly Sunny 82 27.8 73 22.8 74 74 S 8 13 29.85 1011 10 16 0.00 0.00
7:53 am 07:53 Mostly Cloudy 83 28.3 73 22.8 72 72 S 9 15 29.88 1012 10 16 0.00 0.00
8:53 am 08:53 Mostly Cloudy 86 30 74 23.3 67 67 SSW 8 13 29.88 1012 10 16 0.00 0.00
9:53 am 09:53 Mostly Sunny 89 31.7 72 22.2 57 57 SSW 10 17 29.88 1012 10 16 0.00 0.00
10:53 am 10:53 Partly Cloudy 91 32.8 72 22.2 54 54 SSW 10 17 29.87 1012 10 16 0.00 0.00
11:53 am 11:53 Partly Cloudy 95 35 72 22.2 47 47 S 10 17 29.85 1011 10 16 0.00 0.00
12:54 pm 12:54 Mostly Cloudy 99 37.2 71 21.7 41 41 S 10 17 29.83 1010 10 16 0.00 0.00
1:53 pm 13:53 Partly Cloudy 102 38.9 71 21.7 37 37 SSE 9 15 29.81 1010 10 16 0.00 0.00
2:53 pm 14:53 Partly Cloudy 104 40 69 20.6 32 32 SSE 12 19 29.79 1009 10 16 0.00 0.00
3:53 pm 15:53 Partly Cloudy 105 40.6 65 18.3 27 27 S 9 15 29.78 1008 10 16 0.00 0.00
4:53 pm 16:53 Partly Cloudy 107 41.7 62 16.7 23 23 S 8 13 29.76 1008 10 16 0.00 0.00
5:53 pm 17:53 Partly Cloudy 107 41.7 59 15 21 21 S 12 19 29.75 1008 10 16 0.00 0.00
6:53 pm 18:53 Mostly Cloudy 104 40 62 16.7 25 25 SSE 8 13 29.76 1008 10 16 0.00 0.00
7:53 pm 19:53 Mostly Cloudy 102 38.9 63 17.2 28 28 S 12 19 29.77 1008 10 16 0.00 0.00
8:53 pm 20:53 Mostly Cloudy 101 38.3 64 17.8 30 30 S 7 11 29.78 1009 10 16 0.00 0.00
9:53 pm 21:53 Cloudy 99 37.2 65 18.3 33 33 SSE 12 19 29.79 1009 10 16 0.00 0.00
10:53 pm 22:53 Cloudy 98 36.7 64 17.8 33 33 SSE 8 13 29.81 1010 10 16 0.00 0.00
11:53 pm 23:53 Mostly Cloudy 97 36.1 63 17.2 33 33 S 10 17 29.81 1010 10 16 0.00 0.00

Powered by AerisWeather